Location: Plzen
(49.7500°N, 13.3670°E)
Time: 16:25:53
(UTC+02:00)

ISS - Visible Passes

Search period start: 26 June 2022 00:00
Search period end: 06 July 2022 00:00
Orbit: 415 x 420 km, 51.6° (Epoch: 26 June)

Date Brightness Start Highest point End Pass type
(mag) Time Alt. Az. Time Alt. Az. Time Alt. Az.
28 Jun -1.8 04:09:39 10° S 04:12:09 20° SE 04:14:40 10° E visible
29 Jun -1.4 03:23:05 10° SSE 03:24:45 13° SE 03:26:26 10° ESE visible
30 Jun -3.0 04:10:27 10° SW 04:13:39 40° SSE 04:16:51 10° E visible
01 Jul -2.5 03:24:41 17° SSW 03:26:32 28° SE 03:29:31 10° E visible
02 Jul -2.1 02:39:13 19° SSE 02:39:38 20° SE 02:42:12 10° E visible
02 Jul -3.7 04:12:44 10° WSW 04:16:07 78° SSE 04:19:32 10° ENE visible
03 Jul -1.4 01:53:54 13° ESE 01:53:54 13° ESE 01:54:46 10° ESE visible
03 Jul -3.6 03:26:53 17° SW 03:29:18 59° SSE 03:32:40 10° ENE visible
04 Jul -3.2 02:41:42 32° SSW 02:42:43 42° SSE 02:45:58 10° ENE visible
04 Jul -3.4 04:16:09 10° W 04:19:32 69° N 04:22:57 10° ENE visible
05 Jul -2.7 01:56:40 29° SE 01:56:40 29° SE 01:59:24 10° E visible
05 Jul -3.7 03:29:40 10° WSW 03:33:03 81° NNW 03:36:30 10° ENE visible
